Hourly Data Report for September 15, 2020

GIMLI CLIMATE
MANITOBA
Current Station Operator: ECCC - MSC

50°38'00.000" N
97°03'00.000" W
230.10 m
5031042
71748
PGH

Download Data

Hourly Data (September 2020)
Hourly Data Report for September 15, 2020
TIME Temp Definition
°C
Dew Point Definition
°C
Rel Hum Definition
%
Wind Dir Definition
10's deg

Wind Spd Definition
km/h
Visibility Definition
km
Stn Press Definition
kPa
Hmdx Definition


Wind Chill Definition


Weather Definition


00:00 13.1 8.2 72 8 8   98.70     LegendNANA
01:00 12.9 8.4 74 9 9   98.65     LegendNANA
02:00 12.5 8.6 77 2 9   98.65     LegendNANA
03:00 12.5 8.2 75 2 11   98.67     LegendNANA
04:00 12.2 8.1 76 3 10   98.66     LegendNANA
05:00 11.9 8.1 77 1 13   98.67     LegendNANA
06:00 11.4 8.0 79 1 10   98.71     LegendNANA
07:00 10.4 7.2 80 33 10   98.74     LegendNANA
08:00 11.1 7.2 77 34 12   98.73     LegendNANA
09:00 12.7 7.3 70 36 10   98.74     LegendNANA
10:00 13.8 6.7 62 36 11   98.73     LegendNANA
11:00 15.0 6.0 55 32 10   98.77     LegendNANA
12:00 16.1 5.1 48 30 12   98.71     LegendNANA
13:00 16.4 5.0 47 32 14   98.71     LegendNANA
14:00 16.3 3.8 43 32 12   98.65     LegendNANA
15:00 14.9 6.7 58 4 9   98.65     LegendNANA
16:00 15.0 6.0 55 36 3   98.65     LegendNANA
17:00 14.8 4.1 49 29 5   98.67     LegendNANA
18:00 13.7 5.4 57 28 5   98.66     LegendNANA
19:00 11.9 6.0 67 27 8   98.66     LegendNANA
20:00 11.7 6.2 69 27 10   98.68     LegendNANA
21:00 10.6 5.4 71 28 8   98.67     LegendNANA
22:00 11.2 5.7 69 29 14   98.70     LegendNANA
23:00 11.7 6.2 69 30 16   98.73     LegendNANA

Notes on Data Quality.

Legend

  • E = Estimated
  • M = Missing
  • NA = Not Available*
  • [empty] = Indicates an unobserved value
Date modified: